KAVXKPSP

Guest
Details From KAVX - Catalina
To KPSP - Palm Springs Intl
Flight Number -
Tags generated
Created
Modified
Stats Distance 99 nm / 183 km
Max Altitude 8,100 ft / 2,469 m
Waypoints 3
Social Downloads 2
Likes 0
Share VATSIM

Download

Looking for another format? Having issues loading an existing format? Contact us
Advertisement - Login to hide

Notes

Basic altitude profile: - Ascent Rate: 3000ft/min - Ascent Speed: 240kts - Cruise Altitude: 16000ft - Cruise Speed: 300kts - Descent Rate: 500ft/min - Descent Speed: 250kts Options: - Use NATs: yes - Use PACOTS: yes - Use low airways: yes - Use high airways: yes

Route

KAVX MINOE KPSP

ID Type Via Altitude Latitude Longitude Leg Dist Tot Dist Heading (true) Name
O KAVX APT - 0 ft / 0 m 33.40466˚ -118.41588˚ - 0 nm - Catalina
MINOE FIX - 8,100 ft / 2,469 m 33.50427˚ -117.97725˚ 22 nm 22 nm 75° / 75° -
O KPSP APT - 0 ft / 0 m 33.82968˚ -116.50622˚ 76 nm 98 nm 75° / 76° Palm Springs Intl

Altitude Profile

Advertisement - Login to hide

KAVX

Details ICAO KAVX (AVX)
Name Catalina
Region United States
Timezone America/Los_Angeles (UTC-7.0)
Stats Elevation 1,601 ft / 488 m (AMSL)
Location 33.404656° -118.415880°
Runways 1
Magnetic Variation 11.864° E

METAR

KAVX 200951Z AUTO 24007KT M1/4SM HZ VV001 11/M01 A2991 RMK AO2 SLP124 T01111011 $

Decode

TAF

Not found

Departure Runways

ID Width Length Bearing (true) Bearing (mag) Surface Threshold Offset Overrun Length
04 59 ft / 18 m 3,127 ft / 953 m 54.93° 43.07° Asphalt 131 ft / 40 m 0 ft / 0 m
22 59 ft / 18 m 3,127 ft / 953 m 234.93° 223.07° Asphalt 62 ft / 19 m 0 ft / 0 m

KPSP

Details ICAO KPSP (PSP)
Name Palm Springs Intl
Region United States
Timezone America/Los_Angeles (UTC-7.0)
Stats Elevation 477 ft / 145 m (AMSL)
Location 33.829677° -116.506218°
Runways 2
Magnetic Variation 11.542° E

METAR

KPSP 200953Z AUTO 15005KT 10SM CLR 21/11 A2975 RMK AO2 SLP072 T02060111

Decode

TAF

TAF KPSP 200520Z 2006/2106 32012KT P6SM SKC FM200700 VRB06KT P6SM SKC FM202200 31012G20KT P6SM SKC

Decode

Destination Runways

ID Width Length Bearing (true) Bearing (mag) Surface Threshold Offset Overrun Length
13L 75 ft / 23 m 4,958 ft / 1,511 m 143.52° 131.98° Asphalt 0 ft / 0 m 151 ft / 46 m
13R 151 ft / 46 m 10,012 ft / 3,052 m 143.52° 131.98° Asphalt 2,999 ft / 914 m 200 ft / 61 m
31L 151 ft / 46 m 10,012 ft / 3,052 m 323.53° 311.99° Asphalt 1,499 ft / 457 m 200 ft / 61 m
31R 75 ft / 23 m 4,958 ft / 1,511 m 323.53° 311.99° Asphalt 0 ft / 0 m 151 ft / 46 m

Popular Alternatives